Airfield :
LOGIN :

Register | Disclaimer

   EN    FR    IT 

 










Legend :    VFR   Marginal VFR   IFR   Intensive IFR   Very Intensive IFR
Visi :
Ceiling :
>= 8 km
>= 3000ft
5 to 8 km
1000 to 3000 ft
1500m to 5 km
500 to 1000 ft
800 to 1500m
200 to 500 ft
< 800m
< 200 ft
Symbols :   Thunderstorms  Fog  Heavy snow  Heavy precipitations  Wind > 20 kt
SIGMETs :     Misc.  Thunderstorms  Icing  Turbulence  Mountain Waves  Volcanic Ashes






- Airport Elevation : 266 ft
- IATA code : NCL


EGNT - Newcastle

CURRENT METAR :
  • 021950Z AUTO 29010KT 9999 FEW046/// 06/M03 Q1011

EXPIRED METARs :
  • 021920Z AUTO 31012KT 9999 FEW045/// 06/M03 Q1010
  • 021850Z AUTO 31015KT 9999 NCD 07/M04 Q1010
  • 021820Z AUTO 31014KT 9999 NCD 08/M03 Q1010
  • 021750Z AUTO 31014KT 9999 NCD 09/M02 Q1010
  • 021720Z AUTO 30015KT 9999 NCD 08/M02 Q1009

Expired Forecast.
ATIS : +44 191 214 3400



MET'MAP, your aeronautical weather chart ! - Copyright ORBIFLY December 2007 - Disclaimer

ORBIFLY MET'MAP TEAM :

Programming & Development : Alexandra Zaïnal
Concept & original design : Baudouin d'Aumeries
Assistance for programming : Marc-Olivier Méhu
Technical & hardware support : Manuel Goepfert

Contact : metmap@orbifly.com




SOURCES & CREDITS :

   NOAA